Regional Weather Roundup
Issued by NWS

Home | Current Version | Previous Version | Graphics & Text | Print | Product List | Glossary On
Versions: 1 2 3 4 5 6 7 8 9 10 11 12 13 14 15 16 17 18 19 20 21 22 23 24 25 26 27 28 29 30 31 32 33 34 35 36 37 38 39 40 41 42 43 44 45 46 47 48 49 50
000
ASUS43 KLMK 230410
RWRKY
NATIONAL WEATHER SERVICE LOUISVILLE KY
1100 PM EST SAT NOV 22 2014

NOTE "FAIR" INDICATES FEW OR NO CLOUDS BELOW 12,000 FEET
WITH NO SIGNIFICANT WEATHER AND/OR OBSTRUCTIONS TO VISIBILITY.

KYZ001>023-026-027-061>063-070>075-230500-
WESTERN AND SOUTH CENTRAL KENTUCKY

CITY           SKY/WX    TMP DP  RH WIND       PRES   REMARKS
PADUCAH        MOCLDY    57  37  47 S5        29.99F
HENDERSON      MOCLDY    54  34  47 S7        30.01S
OWENSBORO      MOCLDY    53  36  52 S10       30.03F
HOPKINSVILLE   CLEAR     56  41  57 S7        30.04F
BOWLING GREEN  MOCLDY    56  38  50 S9        30.08F
GLASGOW        CLOUDY    55  35  48 S6        30.09F
$$

KYZ024-025-028>034-038-045-046-053-230500-
NORTH CENTRAL KENTUCKY

CITY           SKY/WX    TMP DP  RH WIND       PRES   REMARKS
LOUISVILLE/SDF CLOUDY    51  33  50 SE6       30.06F
LOUISVILLE/LOU PTCLDY    51  32  48 S3        30.08S
FORT KNOX      PTCLDY    49  33  54 SE5       30.05F
$$

KYZ035>037-039>044-047>052-055>060-089>105-230500-
NORTHEAST KENTUCKY

CITY           SKY/WX    TMP DP  RH WIND       PRES   REMARKS
LEXINGTON      PTCLDY    48  35  60 S12       30.10F
COVINGTON      MOCLDY    47  31  53 S9        30.07S
FRANKFORT      PTCLDY    47  31  53 S5        30.08S
$$

KYZ054-064>069-076>088-106>120-230500-
SOUTHEAST KENTUCKY

CITY           SKY/WX    TMP DP  RH WIND       PRES   REMARKS
JACKSON        PTCLDY    50  28  42 VRB5      30.14S
LONDON         PTCLDY    50  30  46 S5        30.15S
SOMERSET       CLOUDY    50  32  50 S3        30.15F
MIDDLESBORO    PTCLDY    34  32  90 CALM      30.18F
MONTICELLO     MOCLDY    53  38  56 S7        30.16F
$$




USA.gov is the U.S. government's official web portal to all federal, state and local government web resources and services.